Hourly Weather Roundup
Issued by NWS Central Illinois

Home | Current Version | Previous Version | Text Only | Print | Product List | Glossary On
Versions: 1 2 3 4 5 6 7 8 9 10 11 12 13 14 15 16 17 18 19 20 21 22 23 24 25 26 27 28 29 30 31 32 33 34 35 36 37 38 39 40 41 42 43 44 45 46 47 48 49 50
000
NZUS43 KILX 211810
HWRILX

Area Weather Roundup
National Weather Service Lincoln IL
100 PM CDT WED JUN 21 2017

NOTE:  "FAIR" indicates few or no clouds below 12,000 feet, with
       no sigificant weather and/or obstructions to visibility.


CITY           SKY/WX    TMP DP  RH WIND       PRES   REMARKS
Bloomington    MOSUNNY   78  67  68 CALM      29.98F HX  80
6HR MIN TEMP:  64; 6HR MAX TEMP:  78; 6HR PCP:  0.03;

Champaign      SUNNY     83  65  54 S6        29.97S HX  85
6HR MIN TEMP:  67; 6HR MAX TEMP:  83;

Danville       SUNNY     80  68  65 SW3       29.95S HX  83
6HR MIN TEMP:  65; 6HR MAX TEMP:  80;

Decatur        CLOUDY    82  70  66 N3        29.96S HX  86
6HR MIN TEMP:  70; 6HR MAX TEMP:  84; 6HR PCP: TRACE;

Effingham      PTSUNNY   89  72  56 S8        29.97F HX  96
6HR MIN TEMP:  70; 6HR MAX TEMP:  89; 6HR PCP:  0.10;

Flora          SUNNY     90  70  50 W6        29.97F HX  95
6HR MIN TEMP:  71; 6HR MAX TEMP:  90;

Galesburg      CLOUDY    69  64  81 CALM      29.96R
6HR MIN TEMP:  65; 6HR MAX TEMP:  73; 6HR PCP:  0.05;

Jacksonville   CLOUDY    80  70  69 SE3       29.94F HX  84
6HR MIN TEMP:  68; 6HR MAX TEMP:  81;

Lacon          LGT RAIN  75  63  64 CALM      29.95F
6HR MIN TEMP:  61; 6HR MAX TEMP:  77;

Lawrenceville  SUNNY     91  68  46 W10       29.96F HX  95
6HR MIN TEMP:  72; 6HR MAX TEMP:  92;

Litchfield     MOSUNNY   87  72  59 NW5       29.96S HX  93
6HR MIN TEMP:  71; 6HR MAX TEMP:  87;

$$


CITY           SKY/WX    TMP DP  RH WIND       PRES   REMARKS
Lincoln        CLOUDY    80  69  67 E3        29.96F HX  83
6HR MIN TEMP:  67; 6HR MAX TEMP:  81;

Macomb         CLOUDY    76  67  74 SE7       29.97S
6HR MIN TEMP:  65; 6HR MAX TEMP:  76;

Mattoon        SUNNY     87  73  62 W5        29.95F HX  94
6HR MIN TEMP:  71; 6HR MAX TEMP:  87;

Mt Carmel AP   SUNNY     90  68  48 W12       29.96F HX  93
6HR MIN TEMP:  73; 6HR MAX TEMP:  90;

Olney-Noble AP SUNNY     88  70  55 W6        29.97F HX  93
Paris AP       SUNNY     83  72  69 SW3       29.97F HX  88
6HR MIN TEMP:  69; 6HR MAX TEMP:  83;

Peoria         CLOUDY    74  64  71 E5        29.95F
6HR MIN TEMP:  66; 6HR MAX TEMP:  76; 6HR PCP:  0.15;

Pontiac        CLOUDY    77  62  59 CALM      29.98F
6HR MIN TEMP:  64; 6HR MAX TEMP:  78;

Rantoul        MOSUNNY   85  66  51 S3        29.96S HX  87
6HR MIN TEMP:  68; 6HR MAX TEMP:  85;

Robinson       SUNNY     87  70  55 W8        29.96F HX  92
6HR MIN TEMP:  70; 6HR MAX TEMP:  87;

Springfield    CLOUDY    81  71  71 NE8       29.95F HX  85
6HR MIN TEMP:  71; 6HR MAX TEMP:  86;

Taylorville    CLOUDY    83  71  65 NW5       29.95F HX  88
6HR MIN TEMP:  70; 6HR MAX TEMP:  86;

$$

...REGIONAL REPORTS...


CITY           SKY/WX    TMP DP  RH WIND       PRES   REMARKS
Chicago O`Hare PTSUNNY   77  49  37 SE8       29.98S
Kankakee       SUNNY     78  58  51 CALM      29.98F
Moline         TSTM      68  62  81 N8        29.99R
Mount Sterling CLOUDY    80  69  69 E5        29.94F HX  83
Mount Vernon   MOSUNNY   91  69  48 VRB7      29.97F HX  96
Pittsfield     MOSUNNY   87  74  66 E5        29.95F HX  95
Quincy         SUNNY     84  71  65 SE5       29.93F HX  89
Rockford       PTSUNNY   77  54  44 VRB6      29.99F
$$


CITY           SKY/WX    TMP DP  RH WIND       PRES   REMARKS
Burlington     CLOUDY    74  69  85 VRB3      29.94R
Cedar Rapids   CLOUDY    70  58  65 E7        29.97F
Des Moines     CLOUDY    78  65  63 E12       29.88F HX  80
Kirksville     MOSUNNY   87  73  62 SE10      29.91F HX  94
Ottumwa        PTSUNNY   80  67  64 SE8       29.92F HX  82
St Louis       MOSUNNY   95  63  34 W8        29.95F HX  96
$$


CITY           SKY/WX    TMP DP  RH WIND       PRES   REMARKS
Terre Haute    SUNNY     86  69  56 VRB6      29.96F HX  90
Evansville     MOSUNNY   92  63  38 W10       29.99F HX  93
Indianapolis   MOSUNNY   84  68  58 W13       29.97S HX  87
Lafayette      SUNNY     79  65  62 N5        29.95F HX  81
Madison        CLOUDY    70  55  59 S7        29.98F
Milwaukee      CLOUDY    73  54  51 S12       29.99S
$$





USA.gov is the U.S. government's official web portal to all federal, state and local government web resources and services.